Zurück zum Katalog

STARLINK-37726

AktivKommunikationSSO
NORAD 69124·PAYLOAD·🇺🇸 United States

Gestartet May 20, 2026 von Vandenberg Space Force Base

Loading…

Nächste Überflüge (nächste 24 Stunden)

TLE

AktuellSource: CelesTrak SupGP

Epoche: Sep 14, 2026, 23:06 UTC

1 69124C 26110A   26257.96298611  .00076273  00000+0  23673-2 0  2570
2 69124  97.2853  93.1755 0001691  95.2484 239.3293 15.33405845    17

Verfolge STARLINK-37726 in Echtzeit mit AllMySat

Download on the App Store